| time (UTC) | temp F | wind direction | speed MPH | gust MPH | rain 1hr in | rain 24hr in | rain mn in | humidity % | barometer mb |
| 20260903134507 | 71 | 286 | 7.0 | 24.0 | 0.00 | 0.03 | 0.03 | 57 | 1018.6 |
| 20260903133008 | 72 | 262 | 5.0 | 13.0 | 0.00 | 0.03 | 0.03 | 56 | 1018.4 |
| 20260903131504 | 72 | 210 | 7.0 | 17.0 | 0.00 | 0.03 | 0.03 | 56 | 1018.4 |
| 20260903130004 | 71 | 245 | 9.0 | 17.0 | 0.00 | 0.03 | 0.03 | 56 | 1018.4 |
| 20260903124502 | 72 | 221 | 6.0 | 16.0 | 0.00 | 0.03 | 0.03 | 56 | 1018.2 |
| 20260903123100 | 71 | 244 | 6.0 | 13.0 | 0.00 | 0.03 | 0.03 | 57 | 1018.2 |
| 20260903121606 | 71 | 285 | 10.0 | 19.0 | 0.00 | 0.03 | 0.03 | 57 | 1018.3 |
| 20260903120104 | 71 | 285 | 7.0 | 20.0 | 0.00 | 0.03 | 0.03 | 58 | 1018.2 |
| 20260903114559 | 71 | 270 | 9.0 | 20.0 | 0.00 | 0.03 | 0.03 | 57 | 1018.5 |
| 20260903113134 | 71 | 288 | 6.0 | 15.0 | 0.00 | 0.03 | 0.03 | 58 | 1018.4 |
| 20260903111554 | 70 | 323 | 7.0 | 19.0 | 0.00 | 0.03 | 0.03 | 59 | 1018.5 |
| 20260903110059 | 70 | 288 | 8.0 | 18.0 | 0.00 | 0.03 | 0.03 | 58 | 1018.3 |
| 20260903104537 | 70 | 78 | 4.0 | 18.0 | 0.00 | 0.03 | 0.03 | 59 | 1018.4 |
| 20260903103030 | 69 | 259 | 7.0 | 18.0 | 0.00 | 0.03 | 0.03 | 59 | 1018.3 |
| 20260903101527 | 69 | 276 | 7.0 | 19.0 | 0.00 | 0.03 | 0.03 | 60 | 1018.2 |
| 20260903100024 | 69 | 251 | 9.0 | 17.0 | 0.00 | 0.03 | 0.03 | 62 | 1018.1 |
| 20260903094531 | 68 | 262 | 8.0 | 17.0 | 0.00 | 0.03 | 0.03 | 63 | 1018.2 |
| 20260903093018 | 68 | 304 | 7.0 | 20.0 | 0.00 | 0.03 | 0.03 | 63 | 1018.3 |
| 20260903091516 | 68 | 304 | 7.0 | 20.0 | 0.00 | 0.03 | 0.03 | 63 | 1017.9 |
| 20260903090018 | 68 | 274 | 8.0 | 19.0 | 0.00 | 0.03 | 0.03 | 65 | 1017.7 |
| 20260903084515 | 67 | 282 | 6.0 | 17.0 | 0.00 | 0.03 | 0.03 | 67 | 1017.7 |
| 20260903083013 | 67 | 291 | 6.0 | 17.0 | 0.02 | 0.03 | 0.03 | 70 | 1017.6 |
| 20260903081512 | 67 | 231 | 7.0 | 18.0 | 0.02 | 0.03 | 0.03 | 71 | 1017.6 |
| 20260903080009 | 66 | 349 | 5.0 | 15.0 | 0.02 | 0.03 | 0.03 | 71 | 1017.6 |
| 20260903074508 | 66 | 254 | 6.0 | 20.0 | 0.02 | 0.03 | 0.03 | 71 | 1017.7 |
| 20260903073006 | 66 | 246 | 6.0 | 15.0 | 0.00 | 0.02 | 0.02 | 69 | 1017.8 |
| 20260903071507 | 66 | 212 | 7.0 | 17.0 | 0.00 | 0.02 | 0.02 | 67 | 1017.6 |
| 20260903070004 | 66 | 249 | 7.0 | 19.0 | 0.00 | 0.02 | 0.02 | 64 | 1017.8 |
| 20260903064502 | 66 | 236 | 7.0 | 14.0 | 0.00 | 0.02 | 0.02 | 63 | 1017.8 |
| 20260903063101 | 66 | 238 | 6.0 | 15.0 | 0.00 | 0.02 | 0.02 | 63 | 1017.6 |
| 20260903061604 | 65 | 270 | 3.0 | 11.0 | 0.01 | 0.02 | 0.02 | 63 | 1017.4 |
| 20260903060104 | 65 | 148 | 2.0 | 11.0 | 0.01 | 0.02 | 0.02 | 63 | 1016.9 |
| 20260903054558 | 65 | 288 | 3.0 | 9.0 | 0.01 | 0.02 | 0.02 | 63 | 1017.0 |
| 20260903053058 | 65 | 233 | 3.0 | 10.0 | 0.01 | 0.02 | 0.02 | 63 | 1017.0 |
| 20260903051611 | 65 | 262 | 4.0 | 13.0 | 0.00 | 0.01 | 0.01 | 62 | 1016.9 |
| 20260903050156 | 65 | 249 | 4.0 | 13.0 | 0.00 | 0.01 | 0.01 | 63 | 1016.9 |
| 20260903044559 | 65 | 256 | 3.0 | 8.0 | 0.00 | 0.01 | 0.01 | 63 | 1017.0 |
| 20260903043147 | 65 | 195 | 3.0 | 9.0 | 0.01 | 0.01 | 0.01 | 63 | 1016.9 |
| 20260903041553 | 65 | 221 | 3.0 | 13.0 | 0.01 | 0.01 | 0.01 | 63 | 1016.9 |
| 20260903040054 | 65 | 232 | 2.0 | 8.0 | 0.01 | 0.01 | 0.01 | 63 | 1016.9 |
| 20260903034552 | 66 | 255 | 3.0 | 10.0 | 0.01 | 0.01 | 0.01 | 62 | 1016.9 |
| 20260903033051 | 66 | 54 | 4.0 | 13.0 | 0.00 | 0.00 | 0.00 | 61 | 1017.2 |
| 20260903031548 | 66 | 261 | 4.0 | 9.0 | 0.00 | 0.00 | 0.00 | 61 | 1017.2 |
| 20260903030048 | 66 | 285 | 4.0 | 10.0 | 0.00 | 0.00 | 0.00 | 62 | 1017.2 |
| 20260903024548 | 65 | 245 | 4.0 | 9.0 | 0.00 | 0.00 | 0.00 | 62 | 1017.2 |
| 20260903023046 | 65 | 247 | 3.0 | 7.0 | 0.00 | 0.00 | 0.00 | 61 | 1017.2 |
| 20260903021544 | 65 | 51 | 2.0 | 11.0 | 0.00 | 0.00 | 0.00 | 60 | 1017.4 |
| 20260903020043 | 65 | 226 | 2.0 | 11.0 | 0.00 | 0.00 | 0.00 | 60 | 1017.5 |
| 20260903014547 | 65 | 191 | 2.0 | 7.0 | 0.00 | 0.00 | 0.00 | 59 | 1017.5 |
| 20260903013050 | 65 | 286 | 2.0 | 10.0 | 0.00 | 0.00 | 0.00 | 59 | 1017.6 |
| 20260903011539 | 64 | 239 | 2.0 | 7.0 | 0.00 | 0.00 | 0.00 | 60 | 1017.5 |
| 20260903010041 | 64 | 197 | 2.0 | 7.0 | 0.00 | 0.00 | 0.00 | 61 | 1017.7 |
| 20260903004536 | 64 | 288 | 3.0 | 11.0 | 0.00 | 0.00 | 0.00 | 61 | 1017.9 |
| 20260903003034 | 65 | 232 | 4.0 | 10.0 | 0.00 | 0.00 | 0.00 | 61 | 1018.2 |
| 20260903001530 | 66 | 226 | 4.0 | 17.0 | 0.00 | 0.00 | 0.00 | 60 | 1018.3 |
| 20260903000028 | 66 | 250 | 5.0 | 12.0 | 0.00 | 0.00 | 0.00 | 58 | 1018.3 |
| 20260902234526 | 66 | 160 | 2.0 | 8.0 | 0.00 | 0.00 | 0.00 | 57 | 1018.3 |
| 20260902233026 | 66 | 213 | 3.0 | 9.0 | 0.00 | 0.00 | 0.00 | 57 | 1018.4 |
| 20260902231527 | 66 | 255 | 3.0 | 10.0 | 0.00 | 0.00 | 0.00 | 56 | 1018.6 |
| 20260902230021 | 66 | 243 | 2.0 | 7.0 | 0.00 | 0.00 | 0.00 | 56 | 1018.8 |
| 20260902224528 | 66 | 252 | 3.0 | 9.0 | 0.00 | 0.00 | 0.00 | 56 | 1018.8 |
| 20260902223025 | 66 | 224 | 5.0 | 11.0 | 0.00 | 0.00 | 0.00 | 56 | 1019.0 |
| 20260902221519 | 66 | 196 | 2.0 | 9.0 | 0.00 | 0.00 | 0.00 | 55 | 1019.0 |
| 20260902220014 | 66 | 203 | 2.0 | 11.0 | 0.00 | 0.00 | 0.00 | 55 | 1019.0 |
| 20260902214513 | 66 | 218 | 4.0 | 14.0 | 0.00 | 0.00 | 0.00 | 54 | 1019.0 |
| 20260902213012 | 65 | 201 | 3.0 | 9.0 | 0.00 | 0.00 | 0.00 | 54 | 1019.2 |
| 20260902211511 | 65 | 231 | 2.0 | 6.0 | 0.00 | 0.00 | 0.00 | 54 | 1019.3 |
| 20260902210010 | 65 | 210 | 2.0 | 7.0 | 0.00 | 0.00 | 0.00 | 54 | 1019.3 |
| 20260902204513 | 65 | 239 | 3.0 | 7.0 | 0.00 | 0.00 | 0.00 | 54 | 1019.4 |
| 20260902203048 | 65 | 222 | 3.0 | 12.0 | 0.00 | 0.00 | 0.00 | 53 | 1019.6 |
| 20260902201602 | 65 | 247 | 1.0 | 5.0 | 0.00 | 0.00 | 0.00 | 54 | 1019.5 |
| 20260902200110 | 65 | 193 | 2.0 | 4.0 | 0.00 | 0.00 | 0.00 | 53 | 1019.4 |
| 20260902194547 | 65 | 258 | 2.0 | 5.0 | 0.00 | 0.00 | 0.00 | 53 | 1019.3 |
| 20260902193045 | 65 | 203 | 1.0 | 5.0 | 0.00 | 0.00 | 0.00 | 53 | 1019.6 |
| 20260902191549 | 66 | 198 | 2.0 | 7.0 | 0.00 | 0.00 | 0.00 | 52 | 1019.5 |
| 20260902190058 | 66 | 250 | 2.0 | 6.0 | 0.00 | 0.00 | 0.00 | 51 | 1019.6 |
| 20260902184543 | 67 | 235 | 2.0 | 6.0 | 0.00 | 0.00 | 0.00 | 50 | 1019.6 |
| 20260902183047 | 67 | 269 | 2.0 | 7.0 | 0.00 | 0.00 | 0.00 | 50 | 1019.7 |
| 20260902181542 | 67 | 256 | 3.0 | 10.0 | 0.00 | 0.00 | 0.00 | 50 | 1019.7 |
| 20260902180042 | 68 | 260 | 2.0 | 9.0 | 0.00 | 0.00 | 0.00 | 50 | 1019.6 |
| 20260902174541 | 68 | 204 | 1.0 | 9.0 | 0.00 | 0.00 | 0.00 | 50 | 1019.6 |
| 20260902173040 | 68 | 245 | 2.0 | 11.0 | 0.00 | 0.00 | 0.00 | 50 | 1019.8 |
| 20260902171539 | 69 | 276 | 3.0 | 8.0 | 0.00 | 0.00 | 0.00 | 50 | 1019.8 |
| 20260902170039 | 69 | 256 | 4.0 | 11.0 | 0.00 | 0.00 | 0.00 | 50 | 1019.9 |
| 20260902164539 | 68 | 264 | 3.0 | 9.0 | 0.00 | 0.00 | 0.00 | 55 | 1019.9 |
| 20260902163038 | 68 | 322 | 2.0 | 9.0 | 0.00 | 0.00 | 0.00 | 57 | 1020.0 |
| 20260902161544 | 68 | 251 | 3.0 | 8.0 | 0.00 | 0.00 | 0.00 | 57 | 1020.1 |
| 20260902160037 | 68 | 293 | 3.0 | 12.0 | 0.00 | 0.00 | 0.00 | 57 | 1020.3 |
| 20260902154536 | 68 | 252 | 3.0 | 10.0 | 0.00 | 0.00 | 0.00 | 57 | 1020.3 |
| 20260902153038 | 68 | 226 | 4.0 | 11.0 | 0.00 | 0.00 | 0.00 | 55 | 1020.4 |
| 20260902151535 | 69 | 236 | 3.0 | 10.0 | 0.00 | 0.00 | 0.00 | 55 | 1020.4 |
| 20260902150034 | 68 | 217 | 4.0 | 10.0 | 0.00 | 0.00 | 0.00 | 54 | 1020.4 |
| 20260902144535 | 68 | 304 | 6.0 | 14.0 | 0.00 | 0.00 | 0.00 | 56 | 1020.7 |
| 20260902143035 | 68 | 257 | 5.0 | 15.0 | 0.00 | 0.00 | 0.00 | 55 | 1020.7 |
| 20260902141537 | 69 | 304 | 4.0 | 12.0 | 0.00 | 0.00 | 0.00 | 54 | 1020.9 |
| 20260902140035 | 68 | 222 | 4.0 | 11.0 | 0.00 | 0.00 | 0.00 | 54 | 1020.8 |